Location: Newark
(6.1731°S, 35.7419°E)
Time: 01:47:57
(UTC+00:00)

LightSail 2 - Visible Passes

Search period start: 23 January 2020 00:00
Search period end: 02 February 2020 00:00
Orbit: 704 x 720 km, 24.0° (Epoch: 22 January)

Date Brightness Start Highest point End Pass type
(mag) Time Alt. Az. Time Alt. Az. Time Alt. Az.
23 Jan 7.0 01:42:44 19° SSW 01:43:15 19° SSW 01:46:53 10° SSE visible
24 Jan 7.8 00:47:49 14° SSE 00:47:49 14° SSE 00:48:50 10° SE visible
24 Jan 7.6 02:29:05 10° SSW 02:30:54 12° S 02:32:43 10° SSE visible
25 Jan 7.5 01:31:50 14° SSW 01:32:10 14° SSW 01:34:49 10° SSE visible
27 Jan 7.7 01:20:57 11° S 01:21:10 11° S 01:22:35 10° S visible
27 Jan 7.8 03:06:47 10° S 03:07:50 11° S 03:08:53 10° SSE visible
29 Jan 7.7 02:54:25 10° SSW 02:56:49 13° S 02:59:12 10° SE visible
29 Jan 7.3 17:06:31 10° N 17:07:17 11° NNE 17:07:17 11° NNE visible
30 Jan 7.8 01:56:26 10° S 01:58:02 11° S 01:59:38 10° SSE visible
30 Jan 7.2 17:50:40 10° NNW 17:52:00 16° NNW 17:52:00 16° NNW visible
31 Jan 8.0 00:59:39 10° S 00:59:39 10° S 00:59:54 10° SSE visible
31 Jan 7.6 02:42:12 10° SSW 02:45:41 18° SSE 02:49:08 10° ESE visible
31 Jan 6.6 16:52:51 10° NNW 16:56:31 20° NNE 16:57:48 18° NE visible
01 Feb 7.7 01:44:07 10° SSW 01:46:56 15° SSE 01:49:45 10° SE visible
01 Feb 5.6 17:38:32 10° NW 17:42:40 45° N 17:42:40 45° N visible
